Location: Home
(42.5358°N, 72.7383°W)
Time: 01:03:18
(UTC-05:00)

Vanguard 1 - Pass Details

Date: 08 December 2021
Orbit: 652 x 3830 km, 34.2° (Epoch: 21 January)

Event Time Altitude Azimuth Distance (km) Brightness Sun altitude
Rises 23:11:07 0° 244° (WSW) 6,711 14.3 -69.2°
Enters shadow 23:13:45 - 243° (WSW) 6,240 14.1 -69.4°
Reaches altitude 10° 23:15:04 10° 242° (WSW) 6,012 - -69.4°
Maximum altitude 23:35:36 65° 166° (SSE) 4,058 - -70.2°
Exits shadow 23:54:29 18° 94° (E) 5,883 13.9 -70.2°
Drops below altitude 10° 23:57:37 10° 92° (E) 6,388 14.1 -70.1°
Sets 00:01:58 0° 90° (E) 7,128 14.5 -69.9°
